Regional Weather Roundup
Issued by NWS

Home | Current Version | Previous Version | Text Only | Print | Product List | Glossary Off
Versions: 1 2 3 4 5 6 7 8 9 10 11 12 13 14 15 16 17 18 19 20 21 22 23 24 25 26 27 28 29 30 31 32 33 34 35 36 37 38 39 40 41 42 43 44 45 46 47 48 49 50

849
ASUS44 KLIX 040005
RWRLA
LOUISIANA WEATHER ROUNDUP
NATIONAL WEATHER SERVICE NEW ORLEANS LA
600 PM CST TUE MAR 03 2015

NOTE: "FAIR" INDICATES FEW OR NO CLOUDS BELOW 12,000 FEET WITH NO
      SIGNIFICANT WEATHER AND/OR OBSTRUCTIONS TO VISIBILITY.
      SKY/WX - SKY CONDITION AND SIGNIFICANT WEATHER.
      TMP - AIR TEMPERATURE.    DP   - DEWPOINT TEMPERATURE.
      RH  - RELATIVE HUMIDITY.  PRES - PRESSURE.
      HX  - HEAT INDEX.         WCI  - WIND CHILL INDEX.

*  THESE STATIONS ARE NOT NWS OR FAA STATIONS AND ARE NOT UNDER
   NWS QUALITY CONTROL.

LAZ040-048-061>063-065-066-069-040100-
SOUTHEAST LOUISIANA

CITY           SKY/WX    TMP DP  RH WIND       PRES   REMARKS
N.O. AUDUBON   NOT AVBL
N.O. INTL ARPT MOCLDY    73  64  73 S14       30.00S
6HR MIN TEMP:  73; 6HR MAX TEMP:  80;

N.O. LAKEFRONT MOCLDY    76  64  66 S15       30.01R
6HR MIN TEMP:  76; 6HR MAX TEMP:  83; 6HR PCP: TRACE;

SLIDELL        CLEAR     71  66  84 SE10      30.01R
6HR MIN TEMP:  71; 6HR MAX TEMP:  77; 6HR PCP: TRACE;

BATON ROUGE    PTCLDY    72  69  90 S14       29.96F
6HR MIN TEMP:  71; 6HR MAX TEMP:  79; 6HR PCP:  0.07;

BOOTHVILLE     CLEAR     72  68  87 SE9       30.02F
6HR MIN TEMP:  72; 6HR MAX TEMP:  78;

BELLE CHASSE   MOCLDY    74  64  71 S10       30.01S
6HR MIN TEMP:  74; 6HR MAX TEMP:  80;

BOGALUSA*        N/A     74  65  74 S13G18    30.01S
GALLIANO*      MOCLDY    75  67  76 SE6       30.01S
6HR MIN TEMP:  75; 6HR MAX TEMP:  81;

NEW ROADS*     FAIR      74  65  74 S14G22    29.95S
6HR MIN TEMP:  72; 6HR MAX TEMP:  80;

GONZALES*      MOCLDY    73  71  91 S7        29.97F
6HR MIN TEMP:  72; 6HR MAX TEMP:  76; 6HR PCP:  0.16;

HAMMOND*       MOCLDY    73  64  73 S14G21    30.00S
HOUMA*         MOCLDY    73  68  83 S7        30.00S
PORT FOURCHON* CLEAR     72  66  83 SE9       30.03S

$$

LAZ041-044-053-054-040100-
SOUTHWEST LOUISIANA

CITY           SKY/WX    TMP DP  RH WIND       PRES   REMARKS
LAKE CHARLES   CLEAR     72  67  84 S10       29.92S
6HR MIN TEMP:  71; 6HR MAX TEMP:  76;

LAFAYETTE      PTCLDY    74  68  81 S10       29.95F
6HR MIN TEMP:  74; 6HR MAX TEMP:  79;

PATTERSON      PTCLDY    72  68  88 S12       29.98S
6HR MIN TEMP:  72; 6HR MAX TEMP:  75;

SALT POINT       N/A     66  65  96 SE8       29.97S
6HR MIN TEMP:  66; 6HR MAX TEMP:  75; 6HR PCP:  0.06;

NEW IBERIA     CLEAR     72  68  87 S9        29.97S
6HR MIN TEMP:  72; 6HR MAX TEMP:  80;

CHENAULT AIRPK NOT AVBL

$$

LAZ027-028-040100-
CENTRAL LOUISIANA

CITY           SKY/WX    TMP DP  RH WIND       PRES   REMARKS
FORT POLK      CLEAR     72  64  75 S12G18    29.90S
6HR MIN TEMP:  65; 6HR MAX TEMP:  77;

ALEXANDRIA INT CLEAR     73  63  70 S15       29.91R
6HR MIN TEMP:  62; 6HR MAX TEMP:  76;

ALEXANDRIA     PTCLDY    75  63  66 S12G17    29.92S
6HR MIN TEMP:  64; 6HR MAX TEMP:  80;


$$

LAZ001-002-040100-
NORTHWEST LOUISIANA

CITY           SKY/WX    TMP DP  RH WIND       PRES   REMARKS
SHREVEPORT     MOCLDY    67  63  87 SE6       29.87S
6HR MIN TEMP:  55; 6HR MAX TEMP:  68;

BARKSDALE AFB  PTCLDY    64  63  96 SE8       29.87F
6HR MIN TEMP:  52; 6HR MAX TEMP:  68;

DTN SHREVEPORT PTCLDY    65  61  87 SE8       29.87F
6HR MIN TEMP:  52; 6HR MAX TEMP:  66;


$$

LAZ014-016-040100-
NORTHEAST LOUISIANA

CITY           SKY/WX    TMP DP  RH WIND       PRES   REMARKS
MONROE         CLEAR     70  63  78 S6        29.91S
6HR MIN TEMP:  58; 6HR MAX TEMP:  74;

TALLULAH       PTCLDY    72  66  81 S3        29.92F
6HR MIN TEMP:  70; 6HR MAX TEMP:  78;


$$




USA.gov is the U.S. government's official web portal to all federal, state and local government web resources and services.